Whiteman AFB, MO

7:08 PM CST on November 15, 2019 (GMT -0600)
Whiteman Air Force Base

Weather History for KSZL - May, 2019

Change the Weather History Date:

Tuesday, May 7, 2019

  Actual Average Record
Temperature  
Mean Temperature 64 °F -  
Max Temperature 70 °F 71 °F 86 °F (2014)
Min Temperature 59 °F 52 °F 45 °F (2017)
Degree Days  
Heating Degree Days 1    
Growing Degree Days 14 (Base 50)    
Moisture  
Dew Point 62 °F    
Average Humidity 94    
Maximum Humidity 100    
Minimum Humidity 73    
Precipitation  
Precipitation 0.23 in - - ()
Sea Level Pressure  
Sea Level Pressure 29.99 in    
Wind  
Wind Speed 11 mph (ENE)    
Max Wind Speed 17 mph    
Max Gust Speed 24 mph    
Visibility 7 miles    
Events Rain , Thunderstorm    
Averages and records for this station are not official NWS values.
T = Trace of Precipitation, MM = Missing Value Source: NWS Daily Summary

Daily Weather History Graph

Daily Weather History Graph

Search for Another Location

Airport or City:

Astronomy

May. 07, 2019 Rise Set
Actual Time 6:10 AM CDT 8:11 PM CDT
Civil Twilight 5:40 AM CDT 8:41 PM CDT
Nautical Twilight 5:05 AM CDT 9:16 PM CDT
Astronomical Twilight 4:26 AM CDT 9:55 PM CDT
Moon 8:17 AM CDT (5/7) 11:12 PM CDT (5/7)
Length of Visible Light 15h 00m
Length of Day
14h 01m
Waxing Crescent, 9% of the Moon is Illuminated
May 7
Waxing Crescent
May 11
First Quarter
May 18
Full
May 26
Last Quarter
Jun 3
New

Hourly Weather History & Observations

Time (CDT) Temp. Dew Point Humidity Pressure Visibility Wind Dir Wind Speed Gust Speed Precip Events Conditions
12:56 AM 62.4 °F 62.4 °F 100% 29.93 in 10.0 mi South 17.3 mph 24.2 mph 0.03 in Rain Light Rain
2:00 AM 62.1 °F 60.8 °F 96% 29.94 in 10.0 mi NNW 16.1 mph - 0.04 in Rain Light Rain
2:05 AM 60.8 °F 60.8 °F 100% 29.96 in 10.0 mi NW 8.1 mph - N/A   Mostly Cloudy
3:56 AM 60.4 °F 60.4 °F 100% 30.00 in 10.0 mi Calm Calm - N/A   Overcast
4:56 AM 59.4 °F 59.4 °F 100% 29.95 in 10.0 mi ENE 5.8 mph - N/A   Overcast
5:56 AM 60.6 °F 60.6 °F 100% 30.05 in 10.0 mi West 6.9 mph - 0.00 in   Light Drizzle
6:56 AM 60.6 °F 60.6 °F 100% 30.08 in 5.0 mi West 4.6 mph - 0.03 in Rain Light Rain
7:57 AM 59.9 °F 59.9 °F 100% 30.06 in 5.0 mi NNE 6.9 mph - 0.09 in Rain Light Rain
8:57 AM 60.8 °F 60.8 °F 100% 30.06 in 6.0 mi Variable 6.9 mph - N/A Rain Light Rain
9:58 AM 64.4 °F 60.8 °F 88% 30.06 in 7.0 mi SSW 10.4 mph - N/A   Overcast
10:55 AM 66.2 °F 60.8 °F 83% 30.08 in 7.0 mi SE 8.1 mph - N/A   Overcast
11:57 AM 66.2 °F 60.8 °F 83% 30.12 in 5.0 mi SE 10.4 mph - N/A Rain Light Rain Showers
12:31 PM 68.0 °F 60.8 °F 78% 30.11 in 7.0 mi SSE 10.4 mph - N/A   Overcast
12:56 PM 69.8 °F 60.8 °F 73% 30.10 in 7.0 mi SE 10.4 mph - N/A   Overcast
1:55 PM 69.8 °F 60.8 °F 73% 30.08 in 7.0 mi SE 8.1 mph - N/A   Mostly Cloudy
2:59 PM 69.1 °F 64.9 °F 87% 30.02 in 10.0 mi NE 6.9 mph - N/A   Mostly Cloudy
3:55 PM 69.6 °F 65.3 °F 86% 30.00 in 10.0 mi ENE 9.2 mph - N/A   Overcast
4:59 PM 69.8 °F 64.4 °F 83% 29.98 in 10.0 mi ENE 11.5 mph - N/A   Mostly Cloudy
6:00 PM 69.8 °F 64.4 °F 83% 29.96 in 10.0 mi NE 12.7 mph - N/A   Mostly Cloudy
6:55 PM 67.3 °F 66.7 °F 98% 29.96 in 10.0 mi NE 13.8 mph - N/A   Overcast
7:44 PM 64.4 °F 64.4 °F 100% 29.96 in 10.0 mi NE 13.8 mph - N/A   Mostly Cloudy
7:56 PM 63.1 °F 63.1 °F 100% 29.96 in 6.0 mi NE 12.7 mph - N/A   Overcast
8:13 PM 62.6 °F 62.6 °F 100% 29.96 in 6.0 mi NE 13.8 mph - N/A   Overcast
8:56 PM 61.0 °F 61.0 °F 100% 29.96 in 6.0 mi NE 12.7 mph - N/A   Overcast
9:15 PM 60.8 °F 60.8 °F 100% 29.93 in 4.0 mi NE 12.7 mph - N/A   Overcast
9:56 PM 59.9 °F 59.9 °F 100% 29.92 in 4.0 mi ENE 11.5 mph - N/A   Overcast
10:54 PM 60.8 °F 60.8 °F 100% 29.91 in 6.0 mi ENE 9.2 mph 17.3 mph N/A   Mostly Cloudy
10:56 PM 60.3 °F 60.3 °F 100% 29.91 in 6.0 mi ENE 9.2 mph 17.3 mph N/A   Mostly Cloudy
11:32 PM 60.8 °F 60.8 °F 100% 29.91 in 5.0 mi East 5.8 mph - N/A Rain Light Rain
11:56 PM 59.5 °F 59.5 °F 100% 29.92 in 4.0 mi East 9.2 mph - 0.04 in Rain Light Rain
11:58 PM 59.0 °F 59.0 °F 100% 29.92 in 4.0 mi ESE 8.1 mph - N/A Rain , Thunderstorm Light Thunderstorms and Rain